Temp
10 10 10 10 10 9 9 9 9 9 9 9 9 9 9 8 9 9 8 11 11 11 11 12 12 12 12 12 13 13 14 15 16 15 16 20 20 21 21 19 20 20 19 19 17
10 10 10 10 10 9 9 9 9 9 9 9 9 9 8 8 8 8 11 11 11 12 11 11 10 10 10 11 12 13 13 15 16 17 17 19 18 20 20 19 19 19 19 18 18
10 10 10 10 10 9 9 9 9 9 9 8 8 8 8 8 8 9 11 11 12 11 11 10 10 10 10 11 10 12 13 15 17 16 16 16 18 17 19 19 19 20 19 18 18
10 10 9 10 9 9 9 8 8 8 8 8 8 8 8 8 9 11 11 12 12 11 11 10 9 9 9 9 11 11 13 14 16 16 16 15 15 16 18 20 19 22 20 18 18
10 10 9 9 9 9 8 8 8 8 8 8 8 8 9 8 8 11 11 11 11 10 10 9 8 8 8 9 10 10 12 14 15 15 14 15 15 15 17 17 17 19 19 18 19
11 10 9 9 8 8 8 8 8 8 8 8 8 8 8 7 11 11 11 11 11 10 10 9 8 9 9 9 10 11 12 13 14 15 13 14 15 15 17 15 17 19 19 19 19
11 10 9 9 8 8 8 8 8 8 8 8 8 8 7 7 11 11 11 11 10 10 9 9 9 9 9 9 10 11 11 12 14 15 13 12 15 15 14 15 16 18 20 18 18
11 10 9 9 8 8 8 8 7 7 8 8 8 8 6 11 10 11 11 10 10 9 9 9 9 8 9 9 9 10 11 12 14 14 13 10 14 15 13 15 15 16 16 18 18
11 10 9 8 8 8 7 7 7 8 8 8 8 7 6 10 10 11 11 10 10 9 8 9 8 8 9 9 9 10 10 11 13 14 12 10 12 14 13 14 14 14 15 16 17
11 9 8 8 8 8 8 7 8 8 8 7 8 7 8 10 11 11 10 10 9 9 9 8 6 8 8 8 9 9 11 11 13 13 13 12 9 11 13 13 13 14 14 15 16
10 9 8 7 7 7 7 8 7 7 8 8 8 8 9 10 10 9 9 9 9 8 8 7 7 8 8 9 9 10 12 12 13 13 12 12 11 12 14 14 14 15 15 16 16
10 9 8 7 7 7 7 6 8 9 8 8 8 9 10 10 9 9 9 8 8 8 7 8 8 10 9 10 10 11 12 13 13 13 13 13 12 12 13 13 14 15 15 16 16
9 8 7 7 7 7 7 8 9 9 8 9 9 9 9 9 8 9 8 8 7 7 7 8 10 10 9 9 11 12 12 13 13 12 13 13 13 12 12 14 13 14 14 15 16
8 8 7 6 7 7 7 9 9 9 2 8 9 10 9 9 8 9 8 7 7 8 8 9 10 10 8 11 13 12 13 13 13 13 13 14 13 13 13 13 14 13 13 14 14
8 7 6 7 7 7 9 9 9 9 5 10 10 11 9 9 9 8 7 8 8 10 9 10 10 9 10 12 12 13 14 14 13 13 13 13 13 14 12 13 14 14 13 13 14
8 7 6 6 7 8 9 9 9 3 5 7 10 10 10 10 10 10 9 8 9 10 11 9 6 9 11 12 13 13 13 12 12 13 12 13 14 14 14 15 16 15 14 13 13
8 7 6 7 7 8 9 7 5 3 8 8 9 10 9 9 10 9 10 10 9 10 10 11 11 12 11 12 13 13 12 11 12 12 13 13 14 16 16 15 16 15 14 13 13
7 6 6 7 9 8 9 5 4 8 6 9 9 10 9 10 11 11 10 9 10 9 7 7 10 11 12 11 12 12 12 11 13 12 12 13 13 15 16 14 14 14 14 13 12
6 6 6 7 8 9 6 4 5 6 8 8 9 10 10 11 10 10 9 9 10 9 9 9 11 12 11 12 12 12 10 13 10 11 10 12 13 15 15 15 14 13 12 12 11
6 6 6 7 8 8 5 7 6 8 9 10 10 10 11 10 11 11 9 10 10 10 10 10 12 11 13 13 13 13 13 12 9 12 14 12 13 14 13 14 14 13 12 12 12
7 7 6 7 8 6 6 5 8 9 10 11 10 9 10 11 11 10 10 11 10 10 10 10 10 11 11 11 12 12 12 11 10 10 12 12 14 13 12 12 15 12 11 11 11
6 6 6 7 7 7 6 6 10 10 10 11 11 11 11 11 10 10 10 10 9 10 11 10 9 9 11 11 12 12 12 10 10 12 7 9 13 12 11 12 12 12 12 12 12
6 6 6 6 6 6 6 9 10 10 11 11 11 12 12 12 11 10 10 11 10 10 11 11 8 6 9 10 11 12 12 10 9 8 8 9 12 13 12 12 12 13 13 12 12
6 7 6 7 7 6 8 9 10 11 11 11 12 12 12 12 10 11 11 11 11 11 12 11 8 9 8 10 10 12 12 11 9 7 10 9 13 14 12 13 12 12 13 11 11
5 6 7 7 7 7 8 9 9 10 11 10 12 12 12 12 11 10 11 11 12 11 11 10 9 7 10 11 10 11 12 11 7 11 9 12 11 12 12 12 12 12 12 11 12
6 4 4 5 6 8 8 9 10 10 10 11 11 12 12 12 12 11 10 11 12 11 10 8 7 7 8 9 10 11 11 11 10 11 10 11 10 12 12 11 12 11 10 11 11
5 6 5 7 5 8 6 8 10 10 10 11 11 10 11 11 10 9 9 8 10 11 9 9 8 7 8 8 10 10 12 11 11 11 12 12 12 10 10 10 11 11 11 10 10
Height
810 809 808 804 802 798 797 797 798 796 792 790 790 791 790 788 786 784 783 782 782 783 783 783 783 782 781 781 780 779 779 770 768 779 770 757 757 748 745 751 752 753 757 760 772
803 805 804 802 800 797 795 795 795 793 791 788 789 790 789 787 785 783 779 780 781 782 782 783 783 783 784 781 780 779 774 767 762 763 766 759 760 751 750 752 751 754 750 757 764
797 799 800 799 798 796 793 793 792 790 789 787 788 789 788 786 786 780 778 780 781 781 782 782 783 784 784 780 780 776 770 765 760 762 766 765 759 755 749 754 746 747 751 752 758
792 794 795 795 795 795 792 790 789 787 786 787 787 788 786 786 788 779 779 780 780 781 782 783 784 785 785 782 777 779 768 768 764 763 762 770 762 759 747 743 740 739 742 752 762
786 789 789 791 792 792 790 788 786 785 784 786 786 787 785 787 784 779 779 779 779 781 782 783 785 785 783 779 778 777 770 764 762 764 766 769 762 763 749 741 738 739 746 747 751
783 784 786 788 789 790 788 785 784 784 782 784 786 786 785 789 778 778 778 778 779 779 780 781 782 781 781 777 775 767 768 767 761 761 769 769 762 766 745 743 738 736 742 749 746
774 777 781 783 785 787 785 784 782 781 781 783 785 785 785 783 777 776 776 777 778 777 777 774 777 778 774 773 768 768 767 767 763 762 769 768 764 757 751 742 739 738 738 744 750
772 771 775 776 781 782 782 782 779 779 779 782 784 784 784 775 775 775 776 776 775 775 774 773 773 771 770 769 767 771 767 765 757 763 769 783 768 755 753 743 744 743 744 742 748
770 767 770 775 777 778 779 780 778 777 779 782 784 783 783 775 774 774 774 774 772 772 772 772 773 770 770 770 771 767 767 765 757 758 772 786 765 760 759 750 748 749 746 749 749
763 763 767 770 773 776 778 778 777 776 780 783 783 788 777 774 773 773 772 770 771 771 771 771 773 768 768 770 764 763 761 760 756 761 771 771 782 772 766 757 752 752 750 750 753
762 763 762 768 772 774 776 777 779 781 780 777 776 776 772 773 772 772 771 770 769 771 770 768 767 760 763 758 761 758 753 753 754 760 765 777 780 776 767 758 755 750 753 751 751
758 758 760 766 767 772 773 772 770 772 775 773 774 774 772 772 772 771 771 771 767 767 768 765 757 750 758 755 759 755 753 751 756 762 771 772 774 767 756 758 756 753 753 753 751
756 755 759 763 765 770 769 770 770 770 777 773 772 771 772 772 771 771 772 768 766 764 765 759 747 746 756 755 751 749 748 751 752 763 769 768 767 768 765 756 760 758 754 755 754
757 754 758 758 767 766 767 768 770 771 806 777 771 770 770 770 771 768 768 769 770 763 756 751 745 748 754 747 743 748 744 744 750 763 759 767 773 768 764 759 759 758 755 752 754
754 752 755 756 758 764 762 767 769 772 821 772 769 766 766 770 771 767 766 765 762 751 753 745 746 751 751 743 742 743 742 746 753 758 764 771 769 761 766 764 760 754 758 756 753
746 749 755 756 759 761 762 766 770 807 814 782 768 766 766 764 765 763 762 764 758 750 740 742 759 755 744 738 735 738 745 756 762 766 776 772 769 761 762 760 748 750 755 755 754
743 746 753 755 758 760 762 767 796 818 778 776 771 767 769 766 761 762 759 754 758 756 754 742 742 742 745 741 741 743 754 777 774 772 776 770 770 760 754 752 749 750 749 750 754
741 746 752 755 758 760 762 777 807 776 784 768 768 767 771 763 758 757 759 762 755 756 773 781 761 756 751 755 755 758 757 772 764 770 773 771 774 760 750 753 753 750 750 751 754
739 746 752 755 759 761 768 794 786 778 768 769 769 768 768 762 764 760 766 766 760 759 764 772 763 759 758 756 759 759 774 759 782 787 793 783 774 756 753 755 757 757 755 756 757
734 745 752 757 761 762 775 771 776 765 763 761 765 768 765 765 763 761 769 762 761 758 757 762 761 764 758 754 755 754 757 770 787 783 776 787 780 774 767 762 759 759 761 761 759
732 744 753 758 762 766 776 777 763 759 757 758 766 771 768 762 763 766 770 762 763 760 759 761 769 772 766 773 767 765 763 770 777 789 782 786 779 771 773 770 762 765 764 763 761
731 743 754 757 765 766 769 767 754 758 758 757 759 759 764 762 766 766 767 768 767 764 764 766 779 787 777 772 768 765 767 773 788 783 819 802 784 771 774 766 764 764 763 762 759
735 745 754 757 764 766 765 755 752 756 757 759 758 756 757 758 763 767 767 764 765 766 768 764 787 810 793 782 773 773 772 780 788 799 810 809 785 769 770 767 764 762 759 759 759
732 747 759 758 758 761 758 754 755 753 756 757 757 755 756 759 767 768 768 765 765 765 763 766 786 784 803 783 783 774 775 777 788 816 796 801 776 767 768 765 763 761 760 762 760
731 744 743 749 755 756 753 751 755 756 755 759 756 756 757 762 765 770 770 768 765 766 767 772 789 800 783 778 781 776 775 781 801 785 798 781 785 773 770 769 766 762 761 761 757
732 742 746 749 753 755 755 753 752 755 757 759 760 759 758 762 761 768 771 771 769 769 772 779 799 797 794 790 785 778 778 781 783 783 788 788 788 773 772 769 765 766 764 762 760
732 733 736 747 759 755 759 754 751 753 759 758 759 764 765 766 766 769 772 774 772 771 778 781 789 798 803 795 787 793 776 782 785 784 779 780 775 778 773 772 770 768 766 764 762
Wind_Speed
17 16 15 13 13 10 8 10 13 12 6 5 7 8 9 8 9 5 4 4 2 5 6 7 5 6 4 2 2 3 6 12 13 10 7 3 10 4 1 11 6 17 12 11 23
18 16 15 14 13 11 9 9 10 11 7 5 6 7 7 7 8 7 6 5 5 4 2 2 3 6 3 2 3 5 9 15 3 5 4 11 5 5 5 6 5 8 8 25 32
19 16 15 14 13 11 9 8 8 10 10 5 6 6 7 6 2 5 3 2 2 5 4 4 1 1 3 3 4 4 13 15 9 9 5 6 6 6 5 7 7 21 21 21 23
20 17 15 14 12 12 8 9 7 9 10 5 5 6 8 1 3 2 3 2 5 5 5 0 1 2 5 6 5 6 8 10 13 7 4 6 10 8 5 2 5 18 26 20 19
21 17 15 13 12 11 9 8 7 8 8 4 4 5 1 1 6 3 2 4 5 3 4 3 4 3 6 5 5 9 11 5 14 5 6 8 7 7 6 4 5 17 21 26 26
22 17 15 12 12 12 8 8 5 8 5 3 3 4 1 2 2 3 3 5 5 6 5 3 4 7 6 7 6 5 14 12 7 11 5 10 5 5 2 7 6 19 22 16 17
26 17 14 11 11 12 8 7 7 6 5 5 2 2 1 9 2 4 4 5 7 7 3 9 16 12 7 4 7 9 4 11 13 9 7 10 8 6 7 5 4 9 16 19 14
25 18 16 12 11 10 8 8 4 3 3 5 2 1 5 4 5 5 5 7 8 6 6 6 4 10 7 2 3 8 6 3 10 11 6 8 9 2 9 2 4 6 7 14 18
27 20 16 11 10 8 7 6 3 1 2 2 2 2 7 6 4 6 8 6 7 6 4 2 2 3 4 2 4 7 4 6 5 13 7 6 9 8 9 4 5 5 6 6 4
25 20 16 9 10 8 8 4 2 3 3 3 1 0 5 1 3 4 7 8 5 2 3 5 1 4 3 5 8 7 7 6 6 8 12 6 12 17 9 6 3 5 4 4 6
20 19 16 10 9 8 8 4 3 3 3 5 4 3 3 3 6 2 2 6 2 2 4 3 3 6 15 12 9 5 4 7 3 12 6 9 8 14 13 4 5 3 3 3 3
22 22 15 12 11 10 10 3 3 3 2 7 4 4 8 2 2 2 5 2 3 5 5 4 6 7 8 9 11 11 9 10 14 13 5 6 6 12 11 5 4 3 2 2 1
17 23 16 13 11 10 9 4 4 3 2 3 4 3 3 3 2 2 2 4 4 7 9 6 2 11 7 7 10 5 13 9 9 10 4 5 4 4 5 5 4 5 4 2 0
18 22 17 17 9 9 4 9 5 4 4 3 2 3 2 3 1 3 6 5 2 4 4 5 4 6 7 5 9 6 9 13 18 9 4 2 2 4 4 11 6 7 5 6 5
17 23 22 20 9 8 7 12 8 4 3 3 1 2 1 2 2 4 4 6 4 4 5 1 5 6 2 3 8 3 13 12 10 5 5 4 2 4 3 8 9 6 7 8 8
18 24 23 18 8 7 18 15 5 6 4 2 2 2 4 3 3 3 4 4 3 5 2 4 2 3 3 3 8 12 15 7 3 2 3 4 2 5 2 6 2 4 8 7 7
27 25 24 15 6 20 20 4 5 4 3 2 2 3 3 3 2 1 3 4 2 2 6 7 14 3 5 10 7 7 5 3 3 3 2 1 1 6 3 7 3 8 9 7 6
29 25 22 12 20 24 10 4 4 2 4 1 2 3 3 3 3 3 3 4 3 3 3 5 5 10 12 5 4 4 3 3 4 3 2 5 3 4 2 6 4 1 3 3 6
31 22 14 12 24 20 4 3 6 5 5 6 3 2 4 2 0 4 5 3 3 5 4 4 5 4 5 2 2 4 4 2 6 4 4 1 5 6 4 6 6 7 8 8 7
22 13 7 23 18 7 4 3 2 3 4 2 3 2 1 3 5 3 5 3 6 4 0 2 5 4 5 3 4 3 1 2 3 4 2 1 3 3 8 7 6 8 8 7 6
23 5 11 19 12 3 3 4 3 3 2 3 4 3 4 1 1 2 3 3 5 7 4 2 3 2 2 4 3 5 3 4 5 4 3 2 3 3 7 6 3 6 6 6 7
5 4 15 18 3 1 3 4 4 4 2 0 2 2 4 2 4 3 2 1 6 4 4 4 4 4 2 4 2 2 2 3 4 1 2 2 3 2 4 2 4 4 4 3 3
3 3 5 2 4 3 3 3 3 3 3 2 1 2 3 2 3 3 2 3 6 5 2 1 3 3 6 5 4 4 3 3 5 4 1 3 4 3 3 5 4 4 5 5 6
4 4 2 2 2 4 4 4 4 2 4 2 1 1 3 3 5 3 2 3 5 3 7 4 3 3 5 3 2 2 3 3 4 3 3 4 3 4 7 6 7 6 5 6 7
2 3 3 7 7 4 2 4 5 4 1 1 0 2 4 3 2 3 2 4 4 7 4 4 4 3 3 1 3 2 3 2 2 2 4 3 5 6 7 6 7 6 6 8 9
4 4 2 1 8 5 1 4 5 3 4 3 3 2 2 4 3 5 4 1 0 5 3 3 1 2 5 7 5 1 1 2 3 3 4 4 7 5 5 5 6 8 8 8 8
2 1 4 7 5 5 4 6 7 7 3 1 6 4 4 2 4 5 3 6 3 2 2 3 3 3 3 4 3 3 1 0 2 1 1 2 5 5 7 7 6 7 6 7 7
Wind_Direction
279 285 291 301 299 294 310 306 318 306 301 325 323 314 314 316 309 295 239 221 239 298 299 324 314 325 281 228 219 325 242 231 215 219 234 255 238 202 114 142 174 177 153 147 120
270 273 282 290 298 294 302 297 312 307 306 315 317 315 312 316 311 279 264 267 271 293 274 55 322 5 310 221 224 205 225 233 222 212 233 247 279 207 151 174 176 148 123 143 146
261 260 270 283 293 298 296 294 306 304 317 296 308 310 315 310 323 249 146 190 291 288 321 356 208 130 239 227 214 211 236 229 227 221 291 302 294 308 181 199 191 178 157 160 152
256 254 263 275 286 290 284 293 292 312 320 271 293 309 316 222 279 178 173 275 317 242 241 345 101 192 212 221 197 260 249 246 250 224 268 291 317 288 211 198 266 189 159 144 158
244 247 255 266 277 282 278 289 286 315 318 280 279 312 331 25 255 172 220 309 297 221 222 197 211 209 222 198 206 237 246 252 239 199 274 271 266 264 275 318 273 143 155 162 172
239 243 246 254 272 275 278 293 273 308 310 275 277 310 122 275 210 200 317 308 248 229 224 185 243 228 258 225 215 230 222 253 274 232 245 288 276 262 277 325 225 156 169 171 167
232 232 232 247 264 268 276 278 292 289 268 285 239 278 101 240 213 262 278 267 255 238 228 212 242 231 191 252 216 264 271 225 235 219 225 355 276 229 302 294 105 175 163 163 171
236 220 222 219 254 254 267 270 270 277 270 271 229 183 247 261 291 283 250 252 254 256 250 272 226 239 226 309 263 206 246 210 194 171 200 89 266 1 316 17 63 60 146 177 171
246 224 210 222 238 241 277 252 240 134 30 194 189 134 273 311 277 274 240 244 252 256 243 218 36 278 119 116 246 176 193 196 143 182 128 155 278 357 334 6 66 46 53 127 160
260 214 204 206 223 230 247 229 152 95 146 173 127 331 270 263 263 262 248 244 239 249 280 210 233 204 177 184 208 166 193 179 183 160 182 232 281 299 305 333 17 47 41 80 175
281 210 189 201 211 232 203 166 57 25 212 193 195 243 284 292 285 225 289 323 220 188 255 212 202 202 192 192 236 285 157 125 158 148 115 223 256 265 289 318 346 42 55 88 86
293 201 188 190 191 207 199 194 190 148 256 227 254 263 275 213 278 152 338 277 232 263 268 236 237 190 150 209 207 196 148 138 110 121 99 187 240 282 315 324 302 312 338 42 53
292 189 183 180 171 192 202 199 131 122 93 289 208 231 221 171 229 166 84 312 271 261 248 247 316 157 151 188 167 167 154 152 131 144 163 151 259 232 281 309 263 258 257 272 217
301 183 176 157 165 196 201 176 141 112 63 275 250 264 171 151 276 184 183 213 243 282 265 245 149 144 154 134 162 162 173 136 127 182 90 331 291 249 299 308 258 257 247 271 262
287 186 174 166 158 172 163 155 137 76 39 247 209 220 150 201 18 248 202 198 259 267 231 114 165 102 119 211 172 127 142 125 102 91 121 360 38 296 64 304 266 269 241 241 249
245 181 174 179 167 168 140 141 108 45 262 325 236 329 341 179 205 245 237 223 262 326 23 95 137 152 283 343 130 123 94 76 86 199 72 162 67 318 173 233 205 238 243 232 231
194 174 173 174 178 153 144 107 59 125 305 279 101 23 339 292 341 212 340 347 0 85 355 4 27 26 53 66 38 77 52 52 37 40 118 96 100 229 263 260 281 274 278 240 210
179 164 173 181 163 155 143 65 97 157 216 98 84 2 330 346 302 8 130 5 344 44 73 59 33 2 342 45 94 28 58 143 132 136 60 71 256 264 323 315 303 182 348 107 167
159 157 162 184 163 165 83 84 207 193 179 143 75 89 313 325 346 47 20 354 327 1 96 100 60 316 44 347 87 270 64 181 102 42 73 256 293 311 6 36 40 60 56 59 79
142 130 131 157 167 138 77 216 178 202 120 91 114 231 307 323 15 32 18 333 324 33 266 158 99 6 346 345 62 117 144 112 355 103 91 310 274 260 351 348 18 31 36 28 40
125 115 150 155 156 58 174 216 202 196 128 112 168 148 256 330 48 34 351 348 355 337 49 99 82 318 19 9 358 355 14 40 118 72 130 111 305 231 274 283 8 34 25 31 30
99 103 159 158 112 126 198 201 168 133 179 116 134 135 170 176 41 64 78 304 350 334 29 360 99 66 77 303 307 1 58 54 102 318 63 105 293 23 304 49 82 59 25 353 24
88 82 107 67 142 188 253 204 133 129 153 145 201 235 200 119 82 71 19 342 5 45 60 23 10 64 357 359 360 61 20 87 77 53 300 105 265 349 21 49 39 22 1 1 345
112 120 85 261 142 156 166 152 114 106 129 152 279 155 95 51 21 119 42 3 10 47 58 94 74 133 165 196 152 145 138 107 96 101 177 225 287 302 335 349 337 332 293 325 315
66 165 193 182 191 187 200 136 119 129 73 154 315 212 145 109 66 84 43 4 12 352 41 78 88 63 60 36 67 53 57 103 95 159 141 286 220 273 282 289 288 295 296 314 312
125 142 58 82 139 160 313 186 131 114 129 203 172 117 91 135 178 172 136 148 82 4 52 7 116 90 8 19 19 355 234 165 197 204 258 272 275 250 309 334 320 299 306 303 296
131 83 97 136 124 155 203 171 162 127 40 115 158 113 76 61 105 100 105 99 89 96 68 60 109 62 304 352 347 7 333 176 35 201 222 246 253 349 324 337 314 314 316 294 299